Starlink 33611

operational
NORAD ID: 63279 Int'l Des: 2025-053 Owner: SPXS Country: US Constellation: starlink
LEOCIRCULAR

About Starlink 33611

Description loading...

Live Position

Loading 3D Globe...

Upcoming Passes

Altitude History

Altitude vs Time

uPlot chart will show altitude changes over time

Two-Line Element Set

1 63279U 25053Q 25305.12765464 .00036078 00000-0 13154-2 0 9992
2 63279 42.9998 244.1814 0000886 255.7787 104.2966 15.27549781 36687
Epoch: Nov 1, 2025 • Age: 58 hours

Current Status

Altitude 491.7 km
Velocity 7.62 km/s
Sub-Earth Point -33.85°S, 135.37°W
Launch Date Mar 15, 2025
Age 0.6 years
Type internet

Technical Details

Classification Payload
Mass 575.00 kg
Dry Mass 530.00 kg
Total Mass 575.00 kg
Length 0.30 m
Diameter 4.10 m
Span 29.00 m
Shape Box + pan
Manufacturer SPXS
Bus Type Starlink V2MO
Phase Status In Orbit
Owner/State SPXS/US

Large Constellations

Loading constellations...